Regional Weather Roundup
Issued by NWS

Home | Current Version | Previous Version | Text Only | Print | Product List | Glossary On
Versions: 1 2 3 4 5 6 7 8 9 10 11 12 13 14 15 16 17 18 19 20 21 22 23 24 25 26 27 28
000
ASUS45 KREV 241310
RWRNV
NEVADA REGIONAL WEATHER ROUNDUP
NATIONAL WEATHER SERVICE RENO NV
600 AM PDT FRI OCT 24 2014

NOTE: "FAIR" INDICATES FEW OR NO CLOUDS BELOW 12,000 FEET WITH NO
SIGNIFICANT WEATHER AND/OR OBSTRUCTIONS TO VISIBILITY.

NVZ001-003-004-241400-
WESTERN NEVADA

CITY           SKY/WX    TMP DP  RH WIND       PRES   REMARKS
RENO           CLEAR     39  30  70 CALM      30.08R
CARSON CITY    FAIR      36  19  51 CALM      30.09S
MINDEN         FAIR      37  21  52 NE3       30.09
SLIDE MTN        N/A     39  21  48 SW35        N/A
PYRAMID LAKE     N/A     54 N/A N/A NW1         N/A
FALLON         MOCLDY    36  28  73 SW3       30.07R
LOVELOCK       PTCLDY    33  25  72 CALM      30.07R
HAWTHORNE      CLEAR     46  27  46 CALM      30.08R
$$

NVZ002-CAZ072-073-241400-
NORTHERN AND CENTRAL SIERRA

CITY           SKY/WX    TMP DP  RH WIND       PRES   REMARKS
S. LAKE TAHOE  CLEAR     30  20  66 CALM      30.13S
TRUCKEE        CLEAR     50  21  32 NW3       30.12R
SQUAW VLY 8000 NOT AVBL
SUSANVILLE     CLEAR     36  34  93 W3        30.06
BLUE CANYON    CLEAR     53  27  36 SE8G17    30.11S
MAMMOTH LAKES  FAIR      37  18  44 CALM      30.23S
$$

NVZ030-031-036-241400-
NORTHERN NEVADA

CITY           SKY/WX    TMP DP  RH WIND       PRES   REMARKS
ELKO           PTCLDY    35  20  54 E3        30.14R
WINNEMUCCA     PTCLDY    31  26  82 SE7       30.08R
WENDOVER       CLEAR     43  30  61 W3        30.14S
$$

NVZ035-037-241400-
CENTRAL NEVADA

CITY           SKY/WX    TMP DP  RH WIND       PRES   REMARKS
ELY            CLEAR     50  27  40 S17       30.22S
EUREKA           N/A     35  19  52 SW5       30.19R
$$

NVZ013-014-241400-
SOUTH CENTRAL NEVADA

CITY           SKY/WX    TMP DP  RH WIND       PRES   REMARKS
TONOPAH        PTCLDY    40  23  50 N9        30.19S
$$

NVZ017-020-022-241400-
SOUTHERN NEVADA

CITY           SKY/WX    TMP DP  RH WIND       PRES   REMARKS
LAS VEGAS      CLEAR     63  36  36 S9        30.03R
N. LAS VEGAS   CLEAR     60  37  42 CALM      30.06R
NELLIS AFB     CLEAR     61  35  38 NW3       30.06R
HENDERSON      CLEAR     58  36  43 SE8       30.09R
MERCURY        CLEAR     52  30  43 N3        30.09S
$$



USA.gov is the U.S. government's official web portal to all federal, state and local government web resources and services.